Retour au catalogue

SL-16 DEB

ActifVLEO
NORAD 22296·DEBRIS·🇷🇺 Russia

Lancé Dec 25, 1992 depuis Baikonur Cosmodrome

Loading…

Prochains Passages (prochaines 24 heures)

TLE

FraisSource: Space-Track

Époque: Sep 14, 2026, 10:31 UTC

1 22296U 92093L   26257.43826216  .00034118  00000-0  23993-2 0  9993
2 22296  70.8215   9.1580 0020619 175.9051 300.3728 15.04760804751309

Suivez SL-16 DEB en temps réel avec AllMySat

Download on the App Store